Time,TemperatureF,DewpointF,PressureIn,WindDirection,WindDirectionDegrees,WindSpeedMPH,WindSpeedGustMPH,Humidity,HourlyPrecipIn,Conditions,Clouds,dailyrainin,SoftwareType,DateUTC
2013-02-06 00:01:00,49.0,46.0,30.11,WSW,248,7.0,12.0,90,0.06,,,0.35,,2013-02-06 08:01:00,
2013-02-06 00:11:00,49.0,46.0,30.11,WSW,248,7.0,12.0,90,0.06,,,0.35,,2013-02-06 08:11:00,
2013-02-06 00:21:00,48.0,45.0,30.12,West,265,7.0,11.0,90,0.06,,,0.35,,2013-02-06 08:21:00,
2013-02-06 00:31:00,48.0,45.0,30.13,West,260,5.0,11.0,90,0.06,,,0.35,,2013-02-06 08:31:00,
2013-02-06 00:41:00,48.0,45.0,30.13,West,260,5.0,11.0,90,0.06,,,0.35,,2013-02-06 08:41:00,
2013-02-06 00:53:00,48.0,45.0,30.12,WSW,258,4.0,9.0,90,0.06,,,0.35,,2013-02-06 08:53:00,
2013-02-06 01:01:00,48.0,45.0,30.12,West,270,4.0,8.0,90,0.00,,,0.35,,2013-02-06 09:01:00,
2013-02-06 01:11:00,48.0,45.0,30.12,West,270,4.0,8.0,90,0.00,,,0.35,,2013-02-06 09:11:00,
2013-02-06 01:21:00,48.0,45.0,30.13,West,265,2.0,11.0,90,0.01,,,0.36,,2013-02-06 09:21:00,
2013-02-06 01:31:00,47.0,44.0,30.13,West,278,1.0,6.0,90,0.01,,,0.36,,2013-02-06 09:31:00,
2013-02-06 01:41:00,47.0,44.0,30.13,West,278,1.0,6.0,90,0.01,,,0.36,,2013-02-06 09:41:00,
2013-02-06 01:51:00,47.0,44.0,30.13,West,273,1.0,7.0,90,0.01,,,0.36,,2013-02-06 09:51:00,
2013-02-06 02:01:00,48.0,45.0,30.13,West,277,6.0,9.0,91,0.01,,,0.36,,2013-02-06 10:01:00,
2013-02-06 02:11:00,48.0,45.0,30.13,West,277,6.0,9.0,91,0.01,,,0.36,,2013-02-06 10:11:00,
2013-02-06 02:21:00,48.0,45.0,30.14,WSW,245,3.0,9.0,91,0.00,,,0.36,,2013-02-06 10:21:00,
2013-02-06 02:31:00,48.0,45.0,30.14,West,277,4.0,8.0,91,0.00,,,0.36,,2013-02-06 10:31:00,
2013-02-06 02:41:00,48.0,45.0,30.14,West,277,4.0,8.0,91,0.00,,,0.36,,2013-02-06 10:41:00,
2013-02-06 02:51:00,48.0,45.0,30.14,West,274,4.0,8.0,91,0.00,,,0.36,,2013-02-06 10:51:00,
2013-02-06 03:01:00,48.0,45.0,30.14,WSW,250,3.0,10.0,91,0.00,,,0.36,,2013-02-06 11:01:00,
2013-02-06 03:11:00,48.0,45.0,30.14,WSW,250,3.0,10.0,91,0.00,,,0.36,,2013-02-06 11:11:00,
2013-02-06 03:22:00,48.0,45.0,30.13,West,259,4.0,9.0,91,0.00,,,0.36,,2013-02-06 11:22:00,
2013-02-06 03:32:00,48.0,45.0,30.14,WNW,286,3.0,7.0,91,0.00,,,0.36,,2013-02-06 11:32:00,
2013-02-06 03:42:00,48.0,45.0,30.14,WNW,286,3.0,7.0,91,0.00,,,0.36,,2013-02-06 11:42:00,
2013-02-06 03:52:00,48.0,45.0,30.14,NW,304,1.0,8.0,91,0.00,,,0.36,,2013-02-06 11:52:00,
2013-02-06 04:01:00,48.0,45.0,30.13,SE,144,1.0,7.0,90,0.00,,,0.36,,2013-02-06 12:01:00,
2013-02-06 04:12:00,48.0,45.0,30.13,SE,144,1.0,7.0,90,0.00,,,0.36,,2013-02-06 12:12:00,
2013-02-06 04:22:00,48.0,45.0,30.13,WSW,250,4.0,7.0,91,0.00,,,0.36,,2013-02-06 12:22:00,
2013-02-06 04:32:00,48.0,45.0,30.13,WSW,250,4.0,7.0,91,0.00,,,0.36,,2013-02-06 12:32:00,
2013-02-06 04:41:00,48.0,45.0,30.13,WSW,250,4.0,7.0,91,0.00,,,0.36,,2013-02-06 12:41:00,
2013-02-06 04:52:00,48.0,45.0,30.13,SW,233,4.0,10.0,91,0.00,,,0.34,,2013-02-06 12:52:00,
2013-02-06 05:01:00,47.0,44.0,30.13,South,187,3.0,8.0,90,0.00,,,0.34,,2013-02-06 13:01:00,
2013-02-06 05:11:00,47.0,44.0,30.13,South,187,3.0,8.0,90,0.00,,,0.34,,2013-02-06 13:11:00,
2013-02-06 05:21:00,47.0,44.0,30.13,SE,140,1.0,11.0,89,0.00,,,0.34,,2013-02-06 13:21:00,
2013-02-06 05:31:00,47.0,44.0,30.13,SSE,147,5.0,11.0,90,0.00,,,0.28,,2013-02-06 13:31:00,
2013-02-06 05:42:00,47.0,44.0,30.13,SSE,147,5.0,11.0,90,0.00,,,0.28,,2013-02-06 13:42:00,
2013-02-06 05:52:00,47.0,44.0,30.12,SE,138,2.0,12.0,90,0.00,,,0.28,,2013-02-06 13:52:00,
2013-02-06 06:01:00,48.0,45.0,30.12,SSW,198,4.0,15.0,90,0.00,,,0.28,,2013-02-06 14:01:00,
2013-02-06 06:11:00,48.0,45.0,30.12,SSW,198,4.0,15.0,90,0.00,,,0.28,,2013-02-06 14:11:00,
2013-02-06 06:21:00,48.0,45.0,30.12,WNW,303,3.0,9.0,89,0.00,,,0.28,,2013-02-06 14:21:00,
2013-02-06 06:31:00,48.0,45.0,30.11,West,263,3.0,10.0,90,0.00,,,0.28,,2013-02-06 14:31:00,
2013-02-06 06:41:00,48.0,45.0,30.11,West,263,3.0,10.0,90,0.00,,,0.28,,2013-02-06 14:41:00,
2013-02-06 06:52:00,48.0,45.0,30.11,West,263,3.0,10.0,90,0.00,,,0.28,,2013-02-06 14:52:00,
2013-02-06 07:01:00,48.0,45.0,30.12,ESE,121,2.0,6.0,90,0.01,,,0.30,,2013-02-06 15:01:00,
2013-02-06 07:11:00,48.0,45.0,30.12,ESE,121,2.0,6.0,90,0.01,,,0.30,,2013-02-06 15:11:00,
2013-02-06 07:21:00,48.0,45.0,30.11,SSE,158,2.0,10.0,89,0.01,,,0.30,,2013-02-06 15:21:00,
2013-02-06 07:31:00,48.0,45.0,30.11,SSE,150,4.0,10.0,89,0.01,,,0.28,,2013-02-06 15:31:00,
2013-02-06 07:41:00,48.0,45.0,30.11,SSE,150,4.0,10.0,89,0.01,,,0.28,,2013-02-06 15:41:00,
2013-02-06 07:51:00,47.0,44.0,30.11,South,180,4.0,11.0,89,0.00,,,0.28,,2013-02-06 15:51:00,
2013-02-06 08:01:00,48.0,45.0,30.11,ENE,74,2.0,8.0,88,0.01,,,0.30,,2013-02-06 16:01:00,
2013-02-06 08:11:00,48.0,45.0,30.11,ENE,74,2.0,8.0,88,0.01,,,0.30,,2013-02-06 16:11:00,
2013-02-06 08:21:00,47.0,44.0,30.11,SSW,196,4.0,16.0,89,0.01,,,0.30,,2013-02-06 16:21:00,
2013-02-06 08:32:00,47.0,44.0,30.11,SSW,196,4.0,16.0,89,0.01,,,0.30,,2013-02-06 16:32:00,
2013-02-06 08:41:00,47.0,44.0,30.11,SSW,196,4.0,16.0,89,0.01,,,0.30,,2013-02-06 16:41:00,
2013-02-06 08:51:00,48.0,45.0,30.11,ESE,115,4.0,10.0,88,0.01,,,0.28,,2013-02-06 16:51:00,
2013-02-06 09:01:00,48.0,45.0,30.11,SE,124,3.0,11.0,88,0.00,,,0.28,,2013-02-06 17:01:00,
2013-02-06 09:11:00,48.0,45.0,30.11,SE,124,3.0,11.0,88,0.00,,,0.28,,2013-02-06 17:11:00,
2013-02-06 09:21:00,48.0,45.0,30.11,SE,142,2.0,7.0,88,0.01,,,0.30,,2013-02-06 17:21:00,
2013-02-06 09:32:00,48.0,45.0,30.11,East,96,5.0,10.0,88,0.01,,,0.30,,2013-02-06 17:32:00,
2013-02-06 09:41:00,48.0,45.0,30.11,East,96,5.0,10.0,88,0.01,,,0.30,,2013-02-06 17:41:00,
2013-02-06 09:52:00,48.0,45.0,30.11,ESE,123,3.0,8.0,88,0.01,,,0.30,,2013-02-06 17:52:00,
2013-02-06 10:01:00,49.0,45.0,30.11,SSE,167,6.0,11.0,86,0.01,,,0.30,,2013-02-06 18:01:00,
2013-02-06 10:11:00,49.0,45.0,30.11,SSE,167,6.0,11.0,86,0.01,,,0.30,,2013-02-06 18:11:00,
2013-02-06 10:22:00,49.0,45.0,30.11,SSE,167,6.0,11.0,86,0.01,,,0.30,,2013-02-06 18:22:00,
2013-02-06 10:32:00,49.0,45.0,30.11,WSW,240,4.0,8.0,85,0.00,,,0.30,,2013-02-06 18:32:00,
2013-02-06 10:41:00,49.0,45.0,30.11,WSW,240,4.0,8.0,85,0.00,,,0.30,,2013-02-06 18:41:00,
2013-02-06 10:52:00,48.0,44.0,30.11,South,175,5.0,18.0,86,0.00,,,0.30,,2013-02-06 18:52:00,
2013-02-06 11:01:00,48.0,44.0,30.11,SSW,192,7.0,15.0,86,0.01,,,0.31,,2013-02-06 19:01:00,
2013-02-06 11:11:00,48.0,44.0,30.11,SSW,192,7.0,15.0,86,0.01,,,0.31,,2013-02-06 19:11:00,
2013-02-06 11:21:00,49.0,45.0,30.10,ESE,111,3.0,14.0,85,0.01,,,0.31,,2013-02-06 19:21:00,
2013-02-06 11:31:00,49.0,45.0,30.10,ESE,111,3.0,14.0,85,0.01,,,0.31,,2013-02-06 19:31:00,
2013-02-06 11:41:00,49.0,45.0,30.10,ESE,111,3.0,14.0,85,0.01,,,0.31,,2013-02-06 19:41:00,
2013-02-06 11:52:00,49.0,44.0,30.09,SW,233,5.0,13.0,84,0.01,,,0.28,,2013-02-06 19:52:00,
2013-02-06 12:01:00,51.0,46.0,30.08,SSE,164,3.0,11.0,82,0.00,,,0.28,,2013-02-06 20:01:00,
2013-02-06 12:11:00,51.0,46.0,30.08,SSE,164,3.0,11.0,82,0.00,,,0.28,,2013-02-06 20:11:00,
2013-02-06 12:21:00,50.0,44.0,30.08,SW,218,2.0,17.0,80,0.00,,,0.28,,2013-02-06 20:21:00,
2013-02-06 12:31:00,50.0,45.0,30.08,WNW,284,3.0,13.0,82,0.00,,,0.24,,2013-02-06 20:31:00,
2013-02-06 12:41:00,50.0,45.0,30.08,WNW,284,3.0,13.0,82,0.00,,,0.24,,2013-02-06 20:41:00,
2013-02-06 12:52:00,49.0,45.0,30.07,SE,134,6.0,12.0,86,0.00,,,0.24,,2013-02-06 20:52:00,
2013-02-06 13:01:00,49.0,45.0,30.07,South,173,2.0,18.0,85,0.00,,,0.24,,2013-02-06 21:01:00,
2013-02-06 13:11:00,49.0,45.0,30.07,South,173,2.0,18.0,85,0.00,,,0.24,,2013-02-06 21:11:00,
2013-02-06 13:21:00,48.0,44.0,30.05,WSW,243,4.0,9.0,86,0.00,,,0.24,,2013-02-06 21:21:00,
2013-02-06 13:31:00,49.0,44.0,30.04,ESE,112,3.0,15.0,84,0.00,,,0.24,,2013-02-06 21:31:00,
2013-02-06 13:41:00,49.0,44.0,30.04,ESE,112,3.0,15.0,84,0.00,,,0.24,,2013-02-06 21:41:00,
2013-02-06 13:51:00,49.0,44.0,30.04,ESE,103,5.0,14.0,83,0.01,,,0.25,,2013-02-06 21:51:00,
2013-02-06 14:01:00,50.0,44.0,30.03,South,173,9.0,18.0,81,0.01,,,0.25,,2013-02-06 22:01:00,
2013-02-06 14:11:00,50.0,44.0,30.03,South,173,9.0,18.0,81,0.01,,,0.25,,2013-02-06 22:11:00,
2013-02-06 14:21:00,51.0,45.0,30.02,ENE,63,3.0,11.0,80,0.01,,,0.25,,2013-02-06 22:21:00,
2013-02-06 14:31:00,51.0,45.0,30.02,ENE,63,3.0,11.0,80,0.01,,,0.25,,2013-02-06 22:31:00,
2013-02-06 14:41:00,51.0,45.0,30.02,ENE,63,3.0,11.0,80,0.01,,,0.25,,2013-02-06 22:41:00,
2013-02-06 14:51:00,51.0,45.0,30.01,East,95,5.0,13.0,79,0.00,,,0.24,,2013-02-06 22:51:00,
2013-02-06 15:01:00,51.0,45.0,30.01,WSW,253,6.0,15.0,80,0.00,,,0.24,,2013-02-06 23:01:00,
2013-02-06 15:11:00,51.0,45.0,30.01,WSW,253,6.0,15.0,80,0.00,,,0.24,,2013-02-06 23:11:00,
2013-02-06 15:21:00,50.0,44.0,30.01,WSW,257,7.0,15.0,80,0.00,,,0.24,,2013-02-06 23:21:00,
2013-02-06 15:31:00,49.0,44.0,30.02,SSE,153,7.0,20.0,82,0.00,,,0.24,,2013-02-06 23:31:00,
2013-02-06 15:41:00,49.0,44.0,30.02,SSE,153,7.0,20.0,82,0.00,,,0.24,,2013-02-06 23:41:00,
2013-02-06 15:52:00,49.0,45.0,30.01,SW,225,9.0,23.0,86,0.00,,,0.24,,2013-02-06 23:52:00,
2013-02-06 16:01:00,48.0,44.0,30.01,South,171,9.0,31.0,87,0.00,,,0.24,,2013-02-07 00:01:00,
2013-02-06 16:11:00,48.0,44.0,30.01,South,171,9.0,31.0,87,0.00,,,0.24,,2013-02-07 00:11:00,
2013-02-06 16:21:00,48.0,44.0,30.00,SE,142,8.0,17.0,86,0.00,,,0.24,,2013-02-07 00:21:00,
2013-02-06 16:31:00,48.0,44.0,30.00,SE,142,8.0,17.0,86,0.00,,,0.24,,2013-02-07 00:31:00,
2013-02-06 16:41:00,48.0,44.0,30.00,SE,142,8.0,17.0,86,0.00,,,0.24,,2013-02-07 00:41:00,
2013-02-06 16:51:00,48.0,43.0,29.99,ESE,102,6.0,22.0,82,0.01,,,0.17,,2013-02-07 00:51:00,
2013-02-06 17:01:00,49.0,43.0,29.98,SE,124,7.0,20.0,81,0.01,,,0.17,,2013-02-07 01:01:00,
2013-02-06 17:11:00,49.0,43.0,29.98,SE,124,7.0,20.0,81,0.01,,,0.17,,2013-02-07 01:11:00,
2013-02-06 17:21:00,49.0,43.0,29.97,ESE,114,5.0,16.0,80,0.01,,,0.17,,2013-02-07 01:21:00,
2013-02-06 17:31:00,49.0,43.0,29.97,ESE,114,5.0,16.0,80,0.01,,,0.17,,2013-02-07 01:31:00,
2013-02-06 17:41:00,49.0,43.0,29.97,ESE,114,5.0,16.0,80,0.01,,,0.17,,2013-02-07 01:41:00,
2013-02-06 17:52:00,49.0,43.0,29.95,SSW,213,6.0,22.0,80,0.00,,,0.16,,2013-02-07 01:52:00,
2013-02-06 18:01:00,49.0,43.0,29.93,SE,134,6.0,17.0,79,0.00,,,0.16,,2013-02-07 02:01:00,
2013-02-06 18:11:00,49.0,43.0,29.93,SE,134,6.0,17.0,79,0.00,,,0.16,,2013-02-07 02:11:00,
2013-02-06 18:21:00,49.0,42.0,29.93,SE,129,7.0,29.0,77,0.00,,,0.16,,2013-02-07 02:21:00,
2013-02-06 18:31:00,49.0,42.0,29.93,ENE,63,9.0,30.0,77,0.00,,,0.16,,2013-02-07 02:31:00,
2013-02-06 18:41:00,49.0,42.0,29.93,ENE,63,9.0,30.0,77,0.00,,,0.16,,2013-02-07 02:41:00,
2013-02-06 18:51:00,49.0,42.0,29.93,ENE,63,9.0,30.0,77,0.00,,,0.16,,2013-02-07 02:51:00,
2013-02-06 19:02:00,49.0,42.0,29.89,SE,125,9.0,22.0,77,0.00,,,0.16,,2013-02-07 03:02:00,
2013-02-06 19:11:00,49.0,42.0,29.89,SE,125,9.0,22.0,77,0.00,,,0.16,,2013-02-07 03:11:00,
2013-02-06 19:21:00,49.0,42.0,29.91,SSE,155,5.0,17.0,77,0.00,,,0.16,,2013-02-07 03:21:00,
2013-02-06 19:31:00,49.0,43.0,29.91,SE,135,10.0,25.0,79,0.00,,,0.13,,2013-02-07 03:31:00,
2013-02-06 19:41:00,49.0,43.0,29.91,SE,135,10.0,25.0,79,0.00,,,0.13,,2013-02-07 03:41:00,
2013-02-06 19:51:00,49.0,42.0,29.90,SSW,205,5.0,21.0,78,0.00,,,0.13,,2013-02-07 03:51:00,
2013-02-06 20:01:00,49.0,42.0,29.90,SSW,205,5.0,21.0,78,0.00,,,0.13,,2013-02-07 04:01:00,
2013-02-06 20:11:00,49.0,42.0,29.90,SSW,205,5.0,21.0,78,0.00,,,0.13,,2013-02-07 04:11:00,
2013-02-06 20:22:00,48.0,42.0,29.88,NE,43,9.0,23.0,81,0.01,,,0.14,,2013-02-07 04:22:00,
2013-02-06 20:31:00,48.0,43.0,29.89,ENE,61,13.0,21.0,82,0.02,,,0.15,,2013-02-07 04:31:00,
2013-02-06 20:41:00,48.0,43.0,29.89,ENE,61,13.0,21.0,82,0.02,,,0.15,,2013-02-07 04:41:00,
2013-02-06 20:52:00,47.0,42.0,29.89,SSW,209,8.0,18.0,83,0.04,,,0.17,,2013-02-07 04:52:00,
2013-02-06 21:01:00,45.0,40.0,29.94,West,278,10.0,23.0,82,0.11,,,0.24,,2013-02-07 05:01:00,
2013-02-06 21:11:00,45.0,40.0,29.94,West,278,10.0,23.0,82,0.11,,,0.24,,2013-02-07 05:11:00,
2013-02-06 21:21:00,44.0,40.0,29.95,SSW,206,3.0,7.0,87,0.13,,,0.27,,2013-02-07 05:21:00,
2013-02-06 21:32:00,43.0,40.0,29.97,West,275,7.0,19.0,89,0.16,,,0.31,,2013-02-07 05:32:00,
2013-02-06 21:42:00,43.0,40.0,29.97,West,275,7.0,19.0,89,0.16,,,0.31,,2013-02-07 05:42:00,
2013-02-06 21:52:00,43.0,40.0,29.96,SSW,212,5.0,13.0,89,0.16,,,0.33,,2013-02-07 05:52:00,
2013-02-06 22:01:00,42.0,39.0,29.97,West,273,3.0,12.0,90,0.11,,,0.35,,2013-02-07 06:01:00,
2013-02-06 22:11:00,42.0,39.0,29.97,West,273,3.0,12.0,90,0.11,,,0.35,,2013-02-07 06:11:00,
2013-02-06 22:22:00,43.0,40.0,29.97,SW,234,3.0,8.0,89,0.10,,,0.38,,2013-02-07 06:22:00,
2013-02-06 22:31:00,43.0,40.0,29.97,SSE,165,6.0,13.0,90,0.10,,,0.41,,2013-02-07 06:31:00,
2013-02-06 22:42:00,43.0,40.0,29.97,SSE,165,6.0,13.0,90,0.10,,,0.41,,2013-02-07 06:42:00,
2013-02-06 22:52:00,42.0,39.0,29.96,SSE,164,7.0,17.0,89,0.09,,,0.42,,2013-02-07 06:52:00,
2013-02-06 23:01:00,42.0,39.0,29.95,SE,144,7.0,14.0,89,0.08,,,0.43,,2013-02-07 07:01:00,
2013-02-06 23:11:00,42.0,39.0,29.95,SE,144,7.0,14.0,89,0.08,,,0.43,,2013-02-07 07:11:00,
2013-02-06 23:21:00,43.0,40.0,29.97,SE,146,7.0,15.0,88,0.05,,,0.43,,2013-02-07 07:21:00,
2013-02-06 23:31:00,43.0,40.0,29.98,South,183,6.0,16.0,88,0.04,,,0.45,,2013-02-07 07:31:00,
2013-02-06 23:41:00,43.0,40.0,29.98,South,183,6.0,16.0,88,0.04,,,0.45,,2013-02-07 07:41:00,
2013-02-06 23:52:00,43.0,40.0,29.99,SSW,196,2.0,10.0,89,0.03,,,0.46,,2013-02-07 07:52:00,